Content
SEND FEEDBACK

Daily
Averages
Monthly
Summary
United States of America

GRAND MARAIS, MINNESOTA


Home > North America > United States > Minnesota
Elevation: 1818 feet     Latitude: 48 05N     Longitude: 090 46W

WEATHER
 
SELECT A DAY
Number of Records: 134,375;   Date Range: 7/30/98 - 7/27/14
 
SHARE

PRINT THIS DATA

[ ← Previous Day ]
WEATHER ALMANAC - JUNE 7, 2014
[ Next Day → ]
[ °C ]   °F
Weather ElementAverageHighLow
Temperature49.4 °F64 °F (1:56 am)37 °F (10:56 pm)
Dewpoint42.6 °F50 °F (10:56 am)35.1 °F (10:56 pm)
Humidity80.7 %96 % (12:56 pm)45 % (2:56 am)
Barometer30.02 in30.06 in (7:56 am)29.94 in (1:56 am)
Wind Speed7.3 mph15 mph (5:56 am)
Wind Gust26.5 mph (5:56 am)
Weather ElementAverage
Wind DirectionWSW (254.3 °)

Weather ElementTotal
Precipitation0.37 in
Heating Degree Days14.5 (Base 65)
Growing Degree Days0.5 (Base 50)
Averaged from 23 records on June 7, 2014
WEATHER CONDITIONS BREAKOUT
WIND DIRECTION BREAKOUT
WEATHER BY HOUR - JUNE 7, 2014
[ °C ]   °F
Local TimeTemperatureDewpointHumidityBarometerVisibilityWind DirectionWind SpeedGust SpeedPrecipitationEventsConditions
1:56 AM64.0 °F43.0 °F46 %29.94 inNNW (340°)12.7 mph20.7 mph
2:56 AM64.0 °F42.1 °F45 %29.94 inNorth (350°)11.5 mph19.6 mph
3:56 AM64.0 °F42.1 °F45 %29.95 inNNW (340°)12.7 mph18.4 mph
4:56 AM63.0 °F41.0 °F45 %29.97 inNNW (340°)8.1 mph19.6 mph
5:56 AM61.0 °F43.0 °F52 %29.96 inNorth (360°)15.0 mph26.5 mph
6:56 AM57.9 °F44.1 °F60 %30.03 inNorth (350°)12.7 mph23.0 mph
7:56 AM53.1 °F48.9 °F86 %30.06 inNNW (340°)11.5 mph26.5 mph0.03 in
8:56 AM53.1 °F48.9 °F86 %30.04 inNorth (350°)8.1 mph18.4 mph0.07 in
9:56 AM52.0 °F48.9 °F89 %30.05 inNorth (350°)8.1 mph0.12 in
10:56 AM53.1 °F50.0 °F89 %30.03 inNorth (10°)6.9 mph0.14 in
11:56 AM50.0 °F46.0 °F86 %30.04 inCalm0.01 in
12:56 PM44.1 °F43.0 °F96 %30.06 inWSW (250°)5.8 mph
1:56 PM45.0 °F43.0 °F93 %30.04 inWSW (250°)5.8 mph
2:56 PM44.1 °F42.1 °F93 %30.02 inWSW (240°)4.6 mph
3:56 PM45.0 °F43.0 °F93 %30.01 inWSW (250°)5.8 mph
4:56 PM44.1 °F42.1 °F93 %30.01 inWSW (250°)3.5 mph
5:56 PM41.0 °F39.9 °F96 %30.02 inWSW (240°)6.9 mph
6:56 PM44.1 °F42.1 °F93 %30.02 inWSW (250°)6.9 mph
7:56 PM41.0 °F39.9 °F96 %30.03 inWSW (250°)9.2 mph
8:56 PM41.0 °F39.9 °F96 %30.05 inWSW (250°)4.6 mph
9:56 PM37.9 °F36.0 °F93 %30.06 inWSW (240°)3.5 mph
10:56 PM37.0 °F35.1 °F93 %30.06 inCalm
11:56 PM37.0 °F35.1 °F93 %30.06 inWSW (250°)3.5 mph
Hourly data recorded from KGNA, located miles away from Grand Marais, Minnesota







STORIES FROM OUR PARTNERS